Tracking 22993 objects as of 12-May-2021
HD Live streaming from Space Station
objects crossing your sky now

INTELSAT 502

Track INTELSAT 502 now!
INTELSAT 502 is classified as:


NORAD ID: 12089
Int'l Code: 1980-098A
Perigee: 36,155.0 km
Apogee: 36,216.8 km
Inclination: 13.8 °
Period: 1,456.2 minutes
Semi major axis: 42556 km
RCS: 13.5237 m2 (large)
Launch date: December 6, 1980
Source: International Telecommunications Satellite Organization (ITSO)
Launch site: AIR FORCE EASTERN TEST RANGE (AFETR)
aabbcc
Your satellite tracking list
Your tracking list is empty




NASA's NSSDC Master Catalog

Two Line Element Set (TLE):
1 12089U 80098A   21130.67102520  .00000032  00000-0  00000-0 0  9990
2 12089  13.8443 340.7165 0007257 309.7445 231.4390  0.98888982115294
Source of the keplerian elements: AFSPC